When you browse on this site, cookies collect data to enhance your experience and personalize the content and advertising you see.
Visit our Privacy Policy to learn more. By continuing to use the site, you agree to this use of cookies and data.
  • In Romania
  • List of Countries
  • For 7 days
  • Water Temperature
  • Satellite Maps
  • Weather Map
  • Weather Widgets
  • user-avatar
    Login

    Hourly Weather Panschina

    Today, 18 December, Tuesday

    Time Temperature Precipitation Wind Pressure Humidity
    00:00 -13°C° 0 mm 3 mps 755 mmHg 91%
    01:00 -13°C° 0 mm 3 mps 755 mmHg 91%
    02:00 -12°C° 0 mm 2 mps 755 mmHg 89%
    03:00 -12°C° 0 mm 2 mps 755 mmHg 89%
    04:00 -12°C° 0 mm 2 mps 755 mmHg 89%
    05:00 -12°C° 0 mm 2 mps 755 mmHg 89%
    06:00 -12°C° 0 mm 2 mps 755 mmHg 88%
    07:00 -12°C° 0 mm 2 mps 755 mmHg 88%
    08:00 -12°C° 0 mm 2 mps 755 mmHg 88%
    09:00 -12°C° 0 mm 2 mps 755 mmHg 87%
    10:00 -12°C° 0 mm 2 mps 755 mmHg 86%
    11:00 -10°C° 0 mm 2 mps 755 mmHg 85%
    12:00 -10°C° 0 mm 2 mps 755 mmHg 84%
    13:00 -10°C° 0 mm 2 mps 755 mmHg 84%
    14:00 -10°C° 0 mm 2 mps 756 mmHg 83%
    15:00 -10°C° 0 mm 2 mps 756 mmHg 84%
    16:00 -10°C° 0 mm 2 mps 756 mmHg 85%
    17:00 -10°C° 0 mm 2 mps 756 mmHg 87%
    18:00 -12°C° 0 mm 2 mps 756 mmHg 87%
    19:00 -12°C° 0 mm 2 mps 756 mmHg 88%
    20:00 -12°C° 0 mm 2 mps 756 mmHg 88%
    21:00 -12°C° 0 mm 2 mps 756 mmHg 88%
    22:00 -10°C° 0 mm 2 mps 756 mmHg 89%
    23:00 -10°C° 0 mm 2 mps 756 mmHg 89%

    Tomorrow, 19 December, Wednesday

    Time Temperature Precipitation Wind Pressure Humidity
    00:00 -10°C° 0 mm 2 mps 756 mmHg 89%
    01:00 -12°C° 0 mm 2 mps 756 mmHg 90%
    02:00 -12°C° 0 mm 2 mps 756 mmHg 90%
    03:00 -12°C° 0 mm 2 mps 756 mmHg 91%
    04:00 -12°C° 0 mm 2 mps 756 mmHg 91%
    05:00 -10°C° 0 mm 1 mps 756 mmHg 91%
    06:00 -12°C° 0 mm 2 mps 757 mmHg 91%
    07:00 -12°C° 0 mm 2 mps 757 mmHg 91%
    08:00 -12°C° 0 mm 2 mps 757 mmHg 91%
    09:00 -12°C° 0 mm 2 mps 757 mmHg 90%
    10:00 -12°C° 0 mm 2 mps 757 mmHg 89%
    11:00 -12°C° 0 mm 2 mps 757 mmHg 88%
    12:00 -12°C° 0 mm 2 mps 757 mmHg 87%
    13:00 -10°C° 0 mm 1 mps 757 mmHg 87%
    14:00 -9°C° 0 mm 1 mps 757 mmHg 86%
    15:00 -10°C° 0 mm 1 mps 757 mmHg 88%
    16:00 -10°C° 0 mm 1 mps 757 mmHg 89%
    17:00 -13°C° 0 mm 2 mps 757 mmHg 91%
    18:00 -13°C° 0 mm 2 mps 757 mmHg 91%
    19:00 -11°C° 0 mm 1 mps 757 mmHg 92%
    20:00 -12°C° 0 mm 1 mps 757 mmHg 92%
    21:00 -12°C° 0 mm 1 mps 757 mmHg 92%
    22:00 -12°C° 0 mm 1 mps 757 mmHg 92%
    23:00 -12°C° 0 mm 1 mps 756 mmHg 92%

    Day after tomorrow, 20 December, Thursday

    Time Temperature Precipitation Wind Pressure Humidity
    00:00 -13°C° 0 mm 1 mps 757 mmHg 92%
    01:00 -13°C° 0 mm 1 mps 757 mmHg 91%
    02:00 -13°C° 0 mm 1 mps 757 mmHg 91%
    03:00 -13°C° 0 mm 1 mps 757 mmHg 92%
    04:00 -13°C° 0 mm 1 mps 756 mmHg 92%
    05:00 -13°C° 0 mm 1 mps 756 mmHg 93%
    06:00 -13°C° 0 mm 1 mps 756 mmHg 93%
    07:00 -13°C° 0 mm 1 mps 756 mmHg 94%
    08:00 -14°C° 0 mm 1 mps 756 mmHg 94%
    09:00 -13°C° 0 mm 1 mps 756 mmHg 92%
    10:00 -13°C° 0 mm 1 mps 756 mmHg 90%
    11:00 -12°C° 0 mm 1 mps 756 mmHg 88%
    12:00 -12°C° 0 mm 1 mps 756 mmHg 87%
    13:00 -12°C° 0 mm 1 mps 756 mmHg 87%
    14:00 -11°C° 0 mm 1 mps 755 mmHg 87%
    15:00 -12°C° 0 mm 1 mps 755 mmHg 89%
    16:00 -12°C° 0 mm 1 mps 755 mmHg 91%
    17:00 -15°C° 0 mm 2 mps 755 mmHg 94%
    18:00 -15°C° 0 mm 2 mps 755 mmHg 94%
    19:00 -15°C° 0 mm 2 mps 755 mmHg 94%
    20:00 -15°C° 0 mm 2 mps 755 mmHg 94%
    21:00 -14°C° 0 mm 2 mps 754 mmHg 94%
    22:00 -14°C° 0 mm 2 mps 754 mmHg 93%
    23:00 -13°C° 0 mm 2 mps 754 mmHg 93%

    21 December, Friday

    Time Temperature Precipitation Wind Pressure Humidity
    00:00 -12°C° 0 mm 2 mps 754 mmHg 92%
    01:00 -12°C° 0 mm 2 mps 753 mmHg 91%
    02:00 -12°C° 0 mm 3 mps 753 mmHg 90%
    03:00 -12°C° 0 mm 3 mps 753 mmHg 90%
    04:00 -12°C° 0 mm 3 mps 752 mmHg 90%
    05:00 -10°C° 0 mm 3 mps 752 mmHg 89%
    06:00 -10°C° 0 mm 3 mps 751 mmHg 89%
    07:00 -10°C° 0 mm 3 mps 751 mmHg 89%
    08:00 -10°C° 0 mm 3 mps 751 mmHg 88%
    09:00 -9°C° 0 mm 3 mps 750 mmHg 87%
    10:00 -10°C° 0 mm 4 mps 750 mmHg 86%
    11:00 -9°C° 0 mm 4 mps 750 mmHg 84%
    12:00 -9°C° 0 mm 4 mps 749 mmHg 85%
    13:00 -9°C° 0 mm 4 mps 749 mmHg 86%
    14:00 -9°C° 0 mm 4 mps 748 mmHg 86%
    15:00 -9°C° 0.2 mm 4 mps 748 mmHg 88%
    16:00 -9°C° 0.2 mm 4 mps 747 mmHg 89%
    17:00 -9°C° 0.2 mm 4 mps 747 mmHg 90%
    18:00 -8°C° 0.1 mm 4 mps 746 mmHg 90%
    19:00 -8°C° 0.1 mm 4 mps 746 mmHg 90%
    20:00 -8°C° 0.1 mm 4 mps 746 mmHg 90%
    21:00 -7°C° 0.1 mm 4 mps 745 mmHg 90%
    22:00 -7°C° 0.1 mm 4 mps 745 mmHg 90%
    23:00 -7°C° 0.1 mm 4 mps 745 mmHg 91%

    22 December, Saturday

    Time Temperature Precipitation Wind Pressure Humidity
    00:00 -5°C° 0.1 mm 4 mps 744 mmHg 91%
    01:00 -5°C° 0.1 mm 4 mps 744 mmHg 91%
    02:00 -5°C° 0.1 mm 4 mps 744 mmHg 92%
    03:00 -5°C° 0.1 mm 4 mps 743 mmHg 92%
    04:00 -5°C° 0.1 mm 3 mps 743 mmHg 92%
    05:00 -5°C° 0.1 mm 3 mps 742 mmHg 93%
    06:00 -5°C° 0 mm 3 mps 742 mmHg 93%
    07:00 -4°C° 0 mm 3 mps 742 mmHg 93%
    08:00 -4°C° 0 mm 3 mps 742 mmHg 93%
    09:00 -4°C° 0 mm 3 mps 742 mmHg 93%
    10:00 -4°C° 0 mm 3 mps 742 mmHg 92%
    11:00 -4°C° 0 mm 3 mps 741 mmHg 91%
    12:00 -2°C° 0 mm 3 mps 741 mmHg 91%
    13:00 -2°C° 0 mm 3 mps 741 mmHg 90%
    14:00 -2°C° 0 mm 3 mps 740 mmHg 90%
    15:00 -2°C° 0 mm 3 mps 740 mmHg 91%
    16:00 -2°C° 0 mm 3 mps 740 mmHg 91%
    17:00 -2°C° 0 mm 3 mps 740 mmHg 91%
    18:00 -2°C° 0 mm 3 mps 739 mmHg 91%
    19:00 -3°C° 0 mm 4 mps 739 mmHg 91%
    20:00 -3°C° 0 mm 4 mps 739 mmHg 91%
    21:00 -3°C° 0 mm 4 mps 739 mmHg 91%
    22:00 -4°C° 0 mm 4 mps 738 mmHg 90%
    23:00 -4°C° 0 mm 4 mps 738 mmHg 90%

    23 December, Sunday

    Time Temperature Precipitation Wind Pressure Humidity
    00:00 -4°C° 0.1 mm 4 mps 738 mmHg 90%
    01:00 -4°C° 0.1 mm 4 mps 737 mmHg 90%
    02:00 -4°C° 0.1 mm 4 mps 737 mmHg 90%
    03:00 -4°C° 0.1 mm 4 mps 737 mmHg 90%
    04:00 -5°C° 0.1 mm 4 mps 737 mmHg 90%
    05:00 -5°C° 0.1 mm 4 mps 737 mmHg 90%
    06:00 -5°C° 0.2 mm 4 mps 736 mmHg 90%
    07:00 -5°C° 0.2 mm 4 mps 736 mmHg 90%
    08:00 -5°C° 0.2 mm 4 mps 736 mmHg 90%
    09:00 -5°C° 0.1 mm 4 mps 736 mmHg 90%
    10:00 -5°C° 0.1 mm 4 mps 736 mmHg 89%
    11:00 -5°C° 0.1 mm 4 mps 736 mmHg 88%
    12:00 -5°C° 0.1 mm 3 mps 736 mmHg 89%
    13:00 -5°C° 0.1 mm 3 mps 736 mmHg 89%
    14:00 -5°C° 0.1 mm 3 mps 736 mmHg 89%
    15:00 -5°C° 0.1 mm 3 mps 736 mmHg 90%
    16:00 -6°C° 0.1 mm 3 mps 736 mmHg 90%
    17:00 -6°C° 0.1 mm 3 mps 736 mmHg 91%
    18:00 -6°C° 0.1 mm 3 mps 736 mmHg 91%
    19:00 -6°C° 0.1 mm 3 mps 736 mmHg 91%
    20:00 -6°C° 0.1 mm 3 mps 736 mmHg 92%
    21:00 -7°C° 0.2 mm 3 mps 736 mmHg 92%
    22:00 -7°C° 0.2 mm 3 mps 736 mmHg 92%
    23:00 -7°C° 0.2 mm 3 mps 736 mmHg 93%
    Show more